Time,TemperatureF,DewpointF,PressureIn,WindDirection,WindDirectionDegrees,WindSpeedMPH,WindSpeedGustMPH,Humidity,HourlyPrecipIn,Conditions,Clouds,dailyrainin,SolarRadiationWatts/m^2,SoftwareType,DateUTC
2013-05-07 00:13:00,56.0,33.0,30.03,NNE,31,13.0,15.0,42,0.00,,,0.00,0,weatherlink.com 1.10,2013-05-07 06:13:00,
2013-05-07 00:28:00,55.4,34.0,30.03,NE,38,11.0,15.0,44,0.00,,,0.00,0,weatherlink.com 1.10,2013-05-07 06:28:00,
2013-05-07 00:43:00,54.8,33.0,30.04,NNE,15,12.0,14.0,44,0.00,,,0.00,0,weatherlink.com 1.10,2013-05-07 06:43:00,
2013-05-07 00:58:00,54.2,33.0,30.05,NNE,25,2.0,8.0,45,0.00,,,0.00,0,weatherlink.com 1.10,2013-05-07 06:58:00,
2013-05-07 01:13:00,52.8,33.0,30.06,ESE,123,1.0,4.0,48,0.00,,,0.00,0,weatherlink.com 1.10,2013-05-07 07:13:00,
2013-05-07 01:28:00,54.0,33.0,30.06,ENE,63,10.0,11.0,45,0.00,,,0.00,0,weatherlink.com 1.10,2013-05-07 07:28:00,
2013-05-07 01:43:00,54.6,33.0,30.06,NE,49,9.0,9.0,44,0.00,,,0.00,0,weatherlink.com 1.10,2013-05-07 07:43:00,
2013-05-07 01:58:00,54.9,33.0,30.06,ENE,71,5.0,8.0,43,0.00,,,0.00,0,weatherlink.com 1.10,2013-05-07 07:58:00,
2013-05-07 02:13:00,54.1,33.0,30.06,NE,37,6.0,8.0,45,0.00,,,0.00,0,weatherlink.com 1.10,2013-05-07 08:13:00,
2013-05-07 02:28:00,55.3,33.0,30.06,NNE,18,6.0,11.0,43,0.00,,,0.00,0,weatherlink.com 1.10,2013-05-07 08:28:00,
2013-05-07 02:43:00,53.5,33.0,30.06,NNW,331,3.0,5.0,46,0.00,,,0.00,0,weatherlink.com 1.10,2013-05-07 08:43:00,
2013-05-07 02:58:00,51.2,33.0,30.07,NE,34,9.0,10.0,50,0.00,,,0.00,0,weatherlink.com 1.10,2013-05-07 08:58:00,
2013-05-07 03:13:00,50.5,33.0,30.07,North,5,3.0,8.0,51,0.00,,,0.00,0,weatherlink.com 1.10,2013-05-07 09:13:00,
2013-05-07 03:28:00,49.8,33.0,30.08,NNE,30,2.0,4.0,53,0.00,,,0.00,0,weatherlink.com 1.10,2013-05-07 09:28:00,
2013-05-07 03:43:00,50.0,33.0,30.08,NNE,13,4.0,6.0,52,0.00,,,0.00,0,weatherlink.com 1.10,2013-05-07 09:43:00,
2013-05-07 03:58:00,49.4,33.0,30.08,NNE,13,0.0,1.0,54,0.00,,,0.00,0,weatherlink.com 1.10,2013-05-07 09:58:00,
2013-05-07 04:13:00,49.3,33.0,30.09,NNE,13,0.0,2.0,53,0.00,,,0.00,0,weatherlink.com 1.10,2013-05-07 10:13:00,
2013-05-07 04:28:00,49.2,33.0,30.09,NNE,22,0.0,2.0,53,0.00,,,0.00,0,weatherlink.com 1.10,2013-05-07 10:28:00,
2013-05-07 04:43:00,49.0,32.0,30.09,NNE,22,0.0,0.0,53,0.00,,,0.00,0,weatherlink.com 1.10,2013-05-07 10:43:00,
2013-05-07 04:58:00,48.8,33.0,30.09,NNE,22,0.0,1.0,54,0.00,,,0.00,0,weatherlink.com 1.10,2013-05-07 10:58:00,
2013-05-07 05:13:00,48.1,33.0,30.10,NNE,22,0.0,2.0,57,0.00,,,0.00,0,weatherlink.com 1.10,2013-05-07 11:13:00,
2013-05-07 05:28:00,47.2,33.0,30.10,NNE,22,0.0,0.0,58,0.00,,,0.00,0,weatherlink.com 1.10,2013-05-07 11:28:00,
2013-05-07 05:43:00,47.2,33.0,30.10,NNE,22,0.0,1.0,59,0.00,,,0.00,0,weatherlink.com 1.10,2013-05-07 11:43:00,
2013-05-07 05:58:00,47.4,33.0,30.10,NE,43,0.0,1.0,58,0.00,,,0.00,0,weatherlink.com 1.10,2013-05-07 11:58:00,
2013-05-07 06:13:00,46.9,33.0,30.11,NE,43,0.0,2.0,59,0.00,,,0.00,5,weatherlink.com 1.10,2013-05-07 12:13:00,
2013-05-07 06:29:00,45.6,33.0,30.11,NE,43,0.0,0.0,62,0.00,,,0.00,11,weatherlink.com 1.10,2013-05-07 12:29:00,
2013-05-07 06:44:00,45.0,33.0,30.11,NE,43,0.0,1.0,64,0.00,,,0.00,16,weatherlink.com 1.10,2013-05-07 12:44:00,
2013-05-07 06:59:00,43.7,33.0,30.11,NE,44,4.0,4.0,66,0.00,,,0.00,21,weatherlink.com 1.10,2013-05-07 12:59:00,
2013-05-07 07:14:00,45.0,33.0,30.12,NNE,26,4.0,6.0,63,0.00,,,0.00,105,weatherlink.com 1.10,2013-05-07 13:14:00,
2013-05-07 07:29:00,46.2,34.0,30.12,NNE,14,4.0,6.0,62,0.00,,,0.00,158,weatherlink.com 1.10,2013-05-07 13:29:00,
2013-05-07 07:44:00,45.8,34.0,30.13,NNE,22,4.0,6.0,63,0.00,,,0.00,211,weatherlink.com 1.10,2013-05-07 13:44:00,
2013-05-07 07:59:00,46.1,34.0,30.13,NNE,22,0.0,5.0,64,0.00,,,0.00,255,weatherlink.com 1.10,2013-05-07 13:59:00,
2013-05-07 08:14:00,47.7,35.0,30.13,NNE,12,0.0,2.0,61,0.00,,,0.00,306,weatherlink.com 1.10,2013-05-07 14:14:00,
2013-05-07 08:29:00,48.1,35.0,30.13,NNE,12,0.0,2.0,62,0.00,,,0.00,352,weatherlink.com 1.10,2013-05-07 14:29:00,
2013-05-07 08:44:00,49.1,36.0,30.13,North,360,2.0,2.0,60,0.00,,,0.00,396,weatherlink.com 1.10,2013-05-07 14:44:00,
2013-05-07 08:59:00,49.7,36.0,30.13,NNE,15,2.0,4.0,60,0.00,,,0.00,436,weatherlink.com 1.10,2013-05-07 14:59:00,
2013-05-07 09:14:00,50.6,36.0,30.13,North,360,3.0,5.0,58,0.00,,,0.00,475,weatherlink.com 1.10,2013-05-07 15:14:00,
2013-05-07 09:29:00,51.8,36.0,30.13,North,5,0.0,4.0,56,0.00,,,0.00,515,weatherlink.com 1.10,2013-05-07 15:29:00,
2013-05-07 09:44:00,53.1,35.0,30.13,SSW,202,0.0,5.0,51,0.00,,,0.00,563,weatherlink.com 1.10,2013-05-07 15:44:00,
2013-05-07 09:59:00,53.7,35.0,30.12,SSW,197,3.0,6.0,50,0.00,,,0.00,615,weatherlink.com 1.10,2013-05-07 15:59:00,
2013-05-07 10:14:00,54.5,35.0,30.12,SSW,202,4.0,8.0,49,0.00,,,0.00,650,weatherlink.com 1.10,2013-05-07 16:14:00,
2013-05-07 10:29:00,55.7,36.0,30.11,South,173,2.0,7.0,48,0.00,,,0.00,687,weatherlink.com 1.10,2013-05-07 16:29:00,
2013-05-07 10:45:00,57.2,36.0,30.11,WSW,254,3.0,7.0,46,0.00,,,0.00,719,weatherlink.com 1.10,2013-05-07 16:45:00,
2013-05-07 11:00:00,59.1,36.0,30.11,SW,214,6.0,7.0,43,0.00,,,0.00,749,weatherlink.com 1.10,2013-05-07 17:00:00,
2013-05-07 11:15:00,60.7,35.0,30.10,WNW,301,1.0,6.0,39,0.00,,,0.00,775,weatherlink.com 1.10,2013-05-07 17:15:00,
2013-05-07 11:30:00,61.7,36.0,30.10,North,350,3.0,6.0,38,0.00,,,0.00,796,weatherlink.com 1.10,2013-05-07 17:30:00,
2013-05-07 11:45:00,62.8,37.0,30.10,NNW,347,8.0,12.0,38,0.00,,,0.00,809,weatherlink.com 1.10,2013-05-07 17:45:00,
2013-05-07 12:00:00,63.0,37.0,30.10,NNW,327,11.0,15.0,38,0.00,,,0.00,830,weatherlink.com 1.10,2013-05-07 18:00:00,
2013-05-07 12:15:00,64.8,38.0,30.09,North,355,21.0,21.0,37,0.00,,,0.00,849,weatherlink.com 1.10,2013-05-07 18:15:00,
2013-05-07 12:30:00,64.6,37.0,30.09,NNW,345,15.0,21.0,36,0.00,,,0.00,854,weatherlink.com 1.10,2013-05-07 18:30:00,
2013-05-07 12:45:00,-999.0,-99.9,30.09,North,-999,-999.0,-999.0,-999,0.00,,,0.00,,weatherlink.com 1.10,2013-05-07 18:45:00,
2013-05-07 13:00:00,-999.0,-99.9,30.08,North,-999,-999.0,-999.0,-999,0.00,,,0.00,,weatherlink.com 1.10,2013-05-07 19:00:00,
2013-05-07 13:15:00,67.0,38.0,30.08,North,360,22.0,26.0,35,0.00,,,0.00,881,weatherlink.com 1.10,2013-05-07 19:15:00,
2013-05-07 13:30:00,68.1,39.0,30.07,NNW,346,17.0,24.0,34,0.00,,,0.00,882,weatherlink.com 1.10,2013-05-07 19:30:00,
2013-05-07 13:45:00,68.7,38.0,30.07,NNW,341,22.0,24.0,33,0.00,,,0.00,879,weatherlink.com 1.10,2013-05-07 19:45:00,
2013-05-07 14:00:00,69.5,37.0,30.07,NNW,341,18.0,22.0,30,0.00,,,0.00,872,weatherlink.com 1.10,2013-05-07 20:00:00,
2013-05-07 14:15:00,70.7,38.0,30.07,NNW,348,24.0,25.0,30,0.00,,,0.00,874,weatherlink.com 1.10,2013-05-07 20:15:00,
2013-05-07 14:30:00,71.0,36.0,30.07,NNW,334,20.0,23.0,28,0.00,,,0.00,861,weatherlink.com 1.10,2013-05-07 20:30:00,
2013-05-07 14:45:00,71.6,37.0,30.07,NNW,346,21.0,25.0,28,0.00,,,0.00,849,weatherlink.com 1.10,2013-05-07 20:45:00,
2013-05-07 15:00:00,72.4,36.0,30.06,NNW,342,19.0,25.0,27,0.00,,,0.00,846,weatherlink.com 1.10,2013-05-07 21:00:00,
2013-05-07 15:15:00,72.4,36.0,30.06,NNW,343,15.0,22.0,26,0.00,,,0.00,835,weatherlink.com 1.10,2013-05-07 21:15:00,
2013-05-07 15:30:00,72.8,36.0,30.06,NNW,336,15.0,24.0,26,0.00,,,0.00,879,weatherlink.com 1.10,2013-05-07 21:30:00,
2013-05-07 15:46:00,73.5,36.0,30.05,NNW,342,17.0,22.0,26,0.00,,,0.00,759,weatherlink.com 1.10,2013-05-07 21:46:00,
2013-05-07 16:01:00,73.5,36.0,30.05,North,349,21.0,26.0,26,0.00,,,0.00,782,weatherlink.com 1.10,2013-05-07 22:01:00,
2013-05-07 16:16:00,73.8,36.0,30.05,NNW,344,15.0,22.0,25,0.00,,,0.00,791,weatherlink.com 1.10,2013-05-07 22:16:00,
2013-05-07 16:31:00,73.7,36.0,30.04,WNW,300,14.0,21.0,25,0.00,,,0.00,714,weatherlink.com 1.10,2013-05-07 22:31:00,
2013-05-07 16:46:00,74.0,37.0,30.04,NNW,344,17.0,29.0,26,0.00,,,0.00,700,weatherlink.com 1.10,2013-05-07 22:46:00,
2013-05-07 17:01:00,74.1,37.0,30.05,NNW,342,16.0,19.0,26,0.00,,,0.00,656,weatherlink.com 1.10,2013-05-07 23:01:00,
2013-05-07 17:16:00,74.6,37.0,30.05,North,360,17.0,20.0,26,0.00,,,0.00,628,weatherlink.com 1.10,2013-05-07 23:16:00,
2013-05-07 17:31:00,73.6,35.0,30.05,NE,36,24.0,26.0,24,0.00,,,0.00,601,weatherlink.com 1.10,2013-05-07 23:31:00,
2013-05-07 17:46:00,72.3,35.0,30.06,NE,40,15.0,22.0,26,0.00,,,0.00,104,weatherlink.com 1.10,2013-05-07 23:46:00,
2013-05-07 18:01:00,73.1,35.0,30.06,ENE,78,17.0,22.0,25,0.00,,,0.00,445,weatherlink.com 1.10,2013-05-08 00:01:00,
2013-05-07 18:16:00,73.0,36.0,30.06,ENE,78,22.0,23.0,26,0.00,,,0.00,403,weatherlink.com 1.10,2013-05-08 00:16:00,
2013-05-07 18:31:00,72.6,37.0,30.07,NE,38,12.0,25.0,27,0.00,,,0.00,355,weatherlink.com 1.10,2013-05-08 00:31:00,
2013-05-07 18:46:00,71.8,35.0,30.07,ENE,78,20.0,29.0,26,0.00,,,0.00,313,weatherlink.com 1.10,2013-05-08 00:46:00,
2013-05-07 19:01:00,70.8,35.0,30.07,NE,55,17.0,25.0,27,0.00,,,0.00,95,weatherlink.com 1.10,2013-05-08 01:01:00,
2013-05-07 19:16:00,70.3,35.0,30.08,ENE,70,17.0,27.0,27,0.00,,,0.00,88,weatherlink.com 1.10,2013-05-08 01:16:00,
2013-05-07 19:31:00,70.5,34.0,30.09,NE,49,13.0,23.0,26,0.00,,,0.00,51,weatherlink.com 1.10,2013-05-08 01:31:00,
2013-05-07 19:46:00,70.1,34.0,30.09,NE,39,17.0,19.0,26,0.00,,,0.00,113,weatherlink.com 1.10,2013-05-08 01:46:00,
2013-05-07 20:01:00,69.8,34.0,30.11,NE,49,11.0,18.0,27,0.00,,,0.00,72,weatherlink.com 1.10,2013-05-08 02:01:00,
2013-05-07 20:16:00,69.3,34.0,30.11,ENE,68,7.0,18.0,27,0.00,,,0.00,42,weatherlink.com 1.10,2013-05-08 02:16:00,
2013-05-07 20:31:00,68.3,34.0,30.12,ENE,61,8.0,14.0,28,0.00,,,0.00,19,weatherlink.com 1.10,2013-05-08 02:31:00,
2013-05-07 20:46:00,67.5,34.0,30.13,NNE,28,8.0,16.0,29,0.00,,,0.00,9,weatherlink.com 1.10,2013-05-08 02:46:00,
2013-05-07 21:01:00,67.0,34.0,30.14,ENE,68,8.0,15.0,29,0.00,,,0.00,0,weatherlink.com 1.10,2013-05-08 03:01:00,
2013-05-07 21:16:00,66.1,34.0,30.15,NE,37,6.0,12.0,30,0.00,,,0.00,0,weatherlink.com 1.10,2013-05-08 03:16:00,
2013-05-07 21:31:00,65.7,34.0,30.16,ENE,59,13.0,14.0,31,0.00,,,0.00,0,weatherlink.com 1.10,2013-05-08 03:31:00,
2013-05-07 21:46:00,65.1,34.0,30.17,ENE,69,1.0,9.0,31,0.00,,,0.00,0,weatherlink.com 1.10,2013-05-08 03:46:00,
2013-05-07 22:01:00,65.2,34.0,30.17,East,82,5.0,12.0,31,0.00,,,0.00,0,weatherlink.com 1.10,2013-05-08 04:01:00,
2013-05-07 22:16:00,64.6,33.0,30.18,South,171,0.0,6.0,31,0.00,,,0.00,0,weatherlink.com 1.10,2013-05-08 04:16:00,
2013-05-07 22:31:00,64.1,33.0,30.19,East,80,3.0,9.0,32,0.00,,,0.00,0,weatherlink.com 1.10,2013-05-08 04:31:00,
2013-05-07 22:46:00,63.4,34.0,30.19,WNW,294,2.0,7.0,33,0.00,,,0.00,0,weatherlink.com 1.10,2013-05-08 04:46:00,
2013-05-07 23:01:00,63.2,33.0,30.20,NNW,331,3.0,8.0,33,0.00,,,0.00,0,weatherlink.com 1.10,2013-05-08 05:01:00,
2013-05-07 23:16:00,62.0,34.0,30.20,South,172,0.0,3.0,35,0.00,,,0.00,0,weatherlink.com 1.10,2013-05-08 05:16:00,
2013-05-07 23:31:00,61.3,33.0,30.20,WSW,238,4.0,4.0,35,0.00,,,0.00,0,weatherlink.com 1.10,2013-05-08 05:31:00,
2013-05-07 23:46:00,59.1,34.0,30.21,West,271,2.0,6.0,39,0.00,,,0.00,0,weatherlink.com 1.10,2013-05-08 05:46:00,